カタログに戻る

COSMOS 2251 DEB

運用中LEO
NORAD 38001·DEBRIS·🇷🇺 Russia

打ち上げ Jun 16, 1993 から Plesetsk Cosmodrome

Loading…

次のパス (今後24時間)

TLE

古いSource: Space-Track

元期: Sep 6, 2026, 15:22 UTC

1 38001U 93036BRC 26249.64090338  .00001583  00000-0  20027-3 0  9990
2 38001  74.0012 323.0462 0061657  43.6649 105.7396 14.81449399786728

AllMySatでCOSMOS 2251 DEBをリアルタイム追跡

Download on the App Store